#timestamp,LO_Frequency,Hit,StdDev 
1579356015.3,286046999.4,N
1579356035.2,286046999.1,N
1579356055.0,286046996.6,Y
1579356055.9,286046996.6,P
1579356075.8,286047001.2,N
1579356095.6,286046999.2,N
1579356115.4,286046998.2,N
1579356135.3,286046998.4,N
1579356155.1,286046999.2,N
1579356175.8,286047000.9,N
1579356195.7,286046999.9,N
1579356215.5,286046999.7,N
1579356235.4,286047002.8,N
1579356255.2,286046999.8,N
1579356275.0,286046998.1,N
1579356275.9,286046998.1,N
1579356295.8,286046999.9,N
1579356315.6,286046999.7,N
1579356335.4,286047001.0,N
1579356355.3,286047001.1,N
1579356375.1,286047000.5,N
1579356395.9,286047002.4,N
1579356415.7,286047000.4,N
1579356435.5,286046998.7,N
1579356455.4,286047004.9,Y
1579356475.2,286047006.2,P
1579356495.1,286047003.2,N
1579356496.0,286047003.2,N
1579356515.8,286047000.8,N
1579356535.6,286047001.0,N
1579356555.5,286046996.5,N
1579356575.3,286046997.7,N
1579356595.1,286046996.1,N
1579356615.9,286046996.0,N
1579356635.7,286046995.1,N
1579356655.6,286046997.7,N
1579356675.4,286046997.9,N
1579356695.2,286046996.8,N
1579356715.1,286046999.5,N
1579356716.0,286046999.5,N
1579356735.8,286046999.5,N
1579356755.6,286046998.1,N
1579356775.5,286046996.5,N
1579356795.3,286046997.2,N
1579356815.2,286046997.5,N
1579356835.9,286046997.8,N
1579356855.7,286046997.5,N
1579356875.6,286046999.3,N
1579356895.4,286046997.1,N
1579356915.2,286046995.1,N
1579356935.1,286046996.9,N
1579356936.0,286046996.9,N
1579356955.8,286046998.0,N
1579356975.7,286046997.5,N
1579356995.5,286046997.3,N
1579357015.3,286047001.0,N
1579357035.2,286046999.3,N
1579357055.0,286046997.2,N
1579357055.9,286046997.2,N
1579357075.8,286046997.4,N
1579357095.6,286046997.2,N
1579357115.4,286046999.4,N
1579357135.3,286046998.2,N
1579357155.1,286046998.9,N
1579357175.8,286046998.4,N
1579357195.7,286046997.0,N
1579357215.5,286046997.0,N
1579357235.4,286046996.7,N
1579357255.2,286046999.2,N
1579357275.0,286047001.1,N
1579357275.9,286047001.1,N
1579357295.8,286046999.9,N
1579357315.6,286047002.4,N
1579357335.4,286047000.5,N
1579357355.3,286046998.4,N
1579357375.1,286046998.3,N
1579357395.9,286047000.6,N
1579357415.7,286046999.2,N
1579357435.5,286046996.6,N
1579357455.4,286046999.6,N
1579357475.2,286046998.1,N
1579357495.0,286046998.4,N
1579357495.9,286046998.4,N
1579357515.8,286047000.8,N
1579357535.6,286046999.2,N
1579357555.5,286046999.6,N
1579357575.3,286046997.1,N
1579357595.1,286046997.2,N
1579357615.9,286046998.0,N
1579357635.7,286046996.6,N
1579357655.6,286046997.2,N
1579357675.4,286046996.9,N
1579357695.2,286046998.0,N
1579357715.1,286046997.7,N
1579357716.0,286046997.7,N
1579357735.8,286046999.0,N
1579357755.6,286046996.9,N
1579357775.5,286046996.5,N
1579357795.3,286046999.6,N
1579357815.2,286046998.3,N
1579357835.9,286047001.1,N
1579357855.7,286047000.3,N
1579357875.6,286047000.4,N
1579357895.4,286047000.9,N
1579357915.2,286046998.9,N
1579357935.1,286046995.6,Y
1579357936.0,286046995.6,P
1579357955.8,286046997.8,N
1579357975.7,286047000.9,N
1579357995.5,286046999.1,N
1579358015.4,286046998.2,N
1579358035.2,286046998.4,N
1579358055.0,286047000.0,N
1579358055.9,286047000.0,N
1579358075.8,286047000.1,N
1579358095.6,286047000.0,N
1579358115.4,286047004.0,N
1579358135.3,286047002.3,N
1579358155.1,286047003.3,N
1579358175.9,286047001.8,N
1579358195.7,286047002.2,N
1579358215.5,286047003.6,N
1579358235.4,286047003.0,N
1579358255.2,286047004.0,N
1579358275.0,286047004.4,N
1579358275.9,286047004.4,N
1579358295.8,286047002.1,N
1579358315.6,286047000.1,N
1579358335.5,286047004.2,N
1579358355.3,286047006.0,N
1579358375.1,286047003.9,N
1579358395.9,286047005.9,N
1579358415.7,286047005.8,N
1579358435.5,286047003.4,N
1579358455.4,286047002.5,N
1579358475.2,286047000.8,N
1579358495.1,286047002.3,N
1579358496.0,286047002.3,N
1579358515.8,286047001.6,N
1579358535.6,286047004.3,N
1579358555.5,286047002.0,N
1579358575.3,286046999.8,N
1579358595.1,286046999.8,N
1579358615.9,286047002.1,N
1579358635.7,286047000.5,N
1579358655.6,286046996.5,N
1579358675.4,286046997.1,N
1579358695.2,286046999.2,N
1579358715.1,286046995.1,N
1579358716.0,286046995.1,N
1579358735.8,286047000.3,N
1579358755.7,286047002.8,N
1579358775.5,286047002.6,N
1579358795.3,286047004.3,N
1579358815.2,286047000.2,N
1579358835.0,286047001.5,N
1579358835.9,286047001.5,N
1579358855.7,286046999.7,N
1579358875.6,286047000.4,N
1579358895.4,286047001.8,N
1579358915.3,286047002.5,N
1579358935.1,286047002.1,N
1579358955.8,286047001.9,N
1579358975.7,286047001.5,N
1579358995.5,286047002.1,N
1579359015.4,286047003.0,N
1579359035.2,286047003.9,N
1579359055.0,286047004.0,N
1579359055.9,286047004.0,N
1579359075.8,286047004.0,N
1579359095.6,286047002.8,N
1579359115.5,286046999.8,N
1579359135.3,286046999.7,N
1579359155.1,286047000.3,N
1579359175.9,286047001.0,N
1579359195.7,286046998.9,N
1579359215.6,286046998.6,N
1579359235.4,286047000.8,N
1579359255.2,286047000.5,N
1579359275.1,286046998.6,N
1579359276.0,286046998.6,N
1579359295.8,286046998.7,N
1579359315.7,286047000.6,N
1579359335.5,286047001.4,N
1579359355.3,286047002.0,N
1579359375.2,286047002.3,N
1579359395.0,286047001.6,N
1579359395.9,286047001.6,N
1579359415.8,286047003.6,N
1579359435.6,286047001.6,N
1579359455.4,286047003.0,N
1579359475.3,286047003.3,N
1579359495.1,286047002.9,N
1579359515.8,286047007.5,Y
1579359535.7,286047002.3,P
1579359555.5,286047002.5,P
1579359575.4,286046999.8,N
1579359595.2,286046999.7,N
